Weather History for Alamosa, CO

Change the Weather History Date:

Friday, November 21, 2014

  Actual Average Record
Temperature  
Mean Temperature 25 °F 27 °F  
Max Temperature 45 °F 44 °F 61 °F (1989)
Min Temperature 5 °F 10 °F -12 °F (1964)
Degree Days  
Heating Degree Days 40 38  
Month to date heating degree days 659 698  
Since 1 July heating degree days 1515 1808  
Cooling Degree Days 0 0  
Month to date cooling degree days 0 0  
Year to date cooling degree days 60 51  
Moisture  
Dew Point 10 °F    
Average Humidity 58    
Maximum Humidity 88    
Minimum Humidity 28    
Precipitation  
Precipitation 0.00 in 0.02 in 0.18 in (1961)
Month to date precipitation 0.32 0.32  
Year to date precipitation 5.31 6.86  
Snow  
Snow 0.00 in 0.10 in 2.30 in (1961)
Month to date snowfall 1.1 2.5  
Since 1 July snowfall 1.1 4.6  
Since 1 September snowfall 1.1 4.6  
Snow Depth 0.00 in    
Sea Level Pressure  
Sea Level Pressure 30.17 in    
Wind  
Wind Speed 3 mph (SSE)    
Max Wind Speed 10 mph    
Max Gust Speed 11 mph    
Visibility 10 miles    
Events      
T = Trace of Precipitation, MM = Missing Value Source: NWS Daily Summary

Daily Weather History Graph

Daily Weather History Graph

Search for Another Location

Airport:

Trip Planner

Search our weather history database for the weather conditions in past years. The results will help you decide how hot, cold, wet, or windy it might be!

Date:

Astronomy

Nov. 21, 2014 Rise Set
Actual Time 6:49 AM MST 4:49 PM MST
Civil Twilight 6:21 AM MST 5:17 PM MST
Nautical Twilight 5:49 AM MST 5:49 PM MST
Astronomical Twilight 5:18 AM MST 6:20 PM MST
Moon 5:49 AM MST (11/21) 4:34 PM MST (11/21)
Length of Visible Light 10h 56m
Length of Day
9h 59m
Waning Crescent, 1% of the Moon is Illuminated
Nov 21
Waning Crescent
Nov 22
New
Nov 29
First Quarter
Dec 6
Full
Dec 14
Last Quarter

Hourly Weather History & Observations

Time (MST) Temp. Windchill Dew Point Humidity Pressure Visibility Wind Dir Wind Speed Gust Speed Precip Events Conditions
12:52 AM 9.0 °F 2.4 °F 3.9 °F 80% 30.14 in 10.0 mi South 3.5 mph - N/A   Clear
1:52 AM 8.6 °F - 3.2 °F 79% 30.06 in 10.0 mi Calm Calm - N/A   Clear
2:52 AM 9.0 °F - 5.0 °F 84% 30.14 in 10.0 mi Calm Calm - N/A   Clear
3:52 AM 6.1 °F -2.8 °F 1.9 °F 83% 30.15 in 10.0 mi SE 4.6 mph - N/A   Clear
4:52 AM 7.0 °F - 3.0 °F 84% 30.16 in 10.0 mi Calm Calm - N/A   Clear
5:52 AM 7.0 °F - 3.0 °F 84% 30.20 in 10.0 mi Calm Calm - N/A   Clear
6:52 AM 8.1 °F -0.5 °F 3.9 °F 83% 30.23 in 10.0 mi NW 4.6 mph - N/A   Clear
7:52 AM 14.0 °F - 9.0 °F 80% 30.23 in 10.0 mi Calm Calm - N/A   Clear
8:52 AM 21.9 °F - 14.0 °F 72% 30.23 in 10.0 mi Calm Calm - N/A   Clear
9:52 AM 26.1 °F 21.9 °F 15.1 °F 63% 30.23 in 10.0 mi SW 3.5 mph - N/A   Clear
10:52 AM 34.0 °F - 15.1 °F 46% 30.19 in 10.0 mi Calm Calm - N/A   Clear
11:52 AM 39.9 °F 36.7 °F 12.9 °F 33% 30.12 in 10.0 mi ESE 4.6 mph - N/A   Clear
12:52 PM 42.1 °F - 14.0 °F 32% 30.10 in 10.0 mi Calm Calm - N/A   Clear
1:52 PM 43.0 °F 40.3 °F 14.0 °F 31% 30.10 in 10.0 mi South 4.6 mph - N/A   Clear
2:52 PM 44.1 °F 40.1 °F 14.0 °F 30% 30.09 in 10.0 mi SSW 6.9 mph - N/A   Clear
3:52 PM 43.0 °F 40.3 °F 14.0 °F 31% 30.11 in 10.0 mi SSE 4.6 mph - N/A   Clear
4:52 PM 37.9 °F 35.5 °F 12.9 °F 36% 30.14 in 10.0 mi ESE 3.5 mph - N/A   Clear
5:52 PM 32.0 °F 28.7 °F 14.0 °F 48% 30.18 in 10.0 mi ESE 3.5 mph - N/A   Clear
6:52 PM 28.9 °F 25.2 °F 12.9 °F 51% 30.20 in 10.0 mi South 3.5 mph - N/A   Clear
7:52 PM 24.1 °F 17.0 °F 12.9 °F 62% 30.22 in 10.0 mi North 5.8 mph - N/A   Clear
8:52 PM 24.1 °F 17.0 °F 12.9 °F 62% 30.19 in 10.0 mi NNW 5.8 mph - N/A   Clear
9:52 PM 14.0 °F - 9.0 °F 80% 30.24 in 10.0 mi Calm Calm - N/A   Clear
10:52 PM 15.1 °F 9.4 °F 9.0 °F 77% 30.19 in 10.0 mi West 3.5 mph - N/A   Clear
11:52 PM 10.9 °F 4.7 °F 6.1 °F 81% 30.19 in 10.0 mi SE 3.5 mph - N/A   Clear